Kaktovik, AK

2:43 AM AKST on February 08, 2016 (GMT -0900)
Barter Island LRRS

Weather History for PABA - December, 2013

Change the Weather History Date:

Saturday, December 28, 2013

  Actual Average Record
Temperature  
Mean Temperature -14 °F -  
Max Temperature -9 °F 1 °F 35 °F (2001)
Min Temperature -20 °F -9 °F -29 °F (2010)
Degree Days  
Heating Degree Days 80    
Moisture  
Dew Point -18 °F    
Average Humidity 79    
Maximum Humidity 84    
Minimum Humidity 74    
Precipitation  
Precipitation 0.00 in - - ()
Sea Level Pressure  
Sea Level Pressure 30.35 in    
Wind  
Wind Speed 19 mph (East)    
Max Wind Speed 31 mph    
Max Gust Speed 32 mph    
Visibility 3 miles    
Events Fog , Snow    
Averages and records for this station are not official NWS values.
T = Trace of Precipitation, MM = Missing Value Source: NWS Daily Summary

Daily Weather History Graph

Daily Weather History Graph

Search for Another Location

Airport or City:

Trip Planner

Search our weather history database for the weather conditions in past years. The results will help you decide how hot, cold, wet, or windy it might be!

Date:

Astronomy

Dec. 31, 1969 Rise Set
Actual Time Sun does not rise Sun does not rise
Civil Twilight 10:30 AM AKST 2:42 PM AKST
Nautical Twilight 8:42 AM AKST 4:30 PM AKST
Astronomical Twilight 7:21 AM AKST 5:50 PM AKST
Moon 6:17 AM AKST (12/28) 11:31 AM AKST (12/28)
Length of Visible Light 4h 11m
Length of Day
0h 00m
Waning Crescent, 17% of the Moon is Illuminated
Dec 28
Waning Crescent
Jan 1
New
Jan 7
First Quarter
Jan 15
Full
Jan 23
Last Quarter

Hourly Weather History & Observations

Time (AKST) Temp. Windchill Dew Point Humidity Pressure Visibility Wind Dir Wind Speed Gust Speed Precip Events Conditions
12:01 AM -20.0 °F -42.2 °F -26.0 °F 74% 30.57 in 10.0 mi East 11.5 mph - N/A   Clear
1:01 AM -20.9 °F -43.3 °F -26.0 °F 77% 30.56 in 10.0 mi East 11.5 mph - N/A   Clear
2:01 AM -20.0 °F -41.1 °F -25.1 °F 78% 30.55 in 10.0 mi East 10.4 mph - N/A   Clear
3:01 AM -20.0 °F -42.2 °F -25.1 °F 78% 30.53 in 10.0 mi East 11.5 mph - N/A   Clear
4:01 AM -18.9 °F -39.8 °F -24.0 °F 78% 30.52 in 10.0 mi East 10.4 mph - N/A   Clear
5:01 AM -18.9 °F -41.8 °F -23.1 °F 81% 30.50 in 10.0 mi East 12.7 mph - N/A   Clear
6:01 AM -18.0 °F -41.6 °F -23.1 °F 78% 30.48 in 10.0 mi East 13.8 mph - N/A   Clear
7:01 AM -17.0 °F -40.2 °F -22.0 °F 78% 30.46 in 10.0 mi East 13.8 mph - N/A   Clear
8:01 AM -16.1 °F -39.9 °F -20.9 °F 79% 30.45 in 3.0 mi East 15.0 mph - 0.00 in Snow Light Snow
8:51 AM -16.6 °F -44.1 °F -20.2 °F 84% 30.43 in 2.5 mi East 20.7 mph - N/A   Haze
9:01 AM -16.1 °F -43.4 °F -20.9 °F 79% 30.43 in 2.5 mi East 20.7 mph - N/A   Haze
9:32 AM -16.6 °F -43.5 °F -20.2 °F 84% 30.43 in 2.5 mi East 19.6 mph - N/A   Haze
9:42 AM -16.6 °F -43.5 °F -20.2 °F 84% 30.42 in 3.0 mi East 19.6 mph - N/A   Mist
10:01 AM -16.1 °F -42.1 °F -20.0 °F 82% 30.42 in 3.0 mi East 18.4 mph - N/A   Clear
10:16 AM -16.6 °F -44.1 °F -20.2 °F 84% 30.41 in 2.5 mi East 20.7 mph - N/A   Clear
10:27 AM -16.6 °F -42.1 °F -20.2 °F 84% 30.42 in 3.0 mi East 17.3 mph - N/A   Clear
10:54 AM -14.8 °F -42.9 °F -20.2 °F 77% 30.40 in 2.0 mi East 23.0 mph - N/A   Haze
11:20 AM -14.8 °F -42.9 °F -18.4 °F 84% 30.39 in 2.0 mi East 23.0 mph - N/A   Haze
11:28 AM -14.8 °F -42.9 °F -18.4 °F 84% 30.39 in 1.8 mi East 23.0 mph - N/A   Haze
12:15 PM -13.0 °F -41.1 °F -16.6 °F 84% 30.38 in 0.5 mi East 24.2 mph - N/A Fog , Snow Light Snow
12:34 PM -13.0 °F -41.6 °F -16.6 °F 84% 30.37 in 0.8 mi East 25.3 mph - N/A   Clear
12:43 PM -13.0 °F -41.1 °F -16.6 °F 84% 30.37 in 1.2 mi East 24.2 mph - N/A   Clear
1:01 PM -11.9 °F -39.1 °F -17.0 °F 78% 30.37 in 1.5 mi East 23.0 mph - N/A   Haze
1:10 PM -11.2 °F -38.2 °F -16.6 °F 77% 30.36 in 2.0 mi East 23.0 mph - N/A   Haze
1:17 PM -11.2 °F -38.2 °F -16.6 °F 77% 30.36 in 1.5 mi East 23.0 mph - N/A   Haze
1:30 PM -11.2 °F -39.2 °F -16.6 °F 77% 30.36 in 1.0 mi East 25.3 mph - N/A   Haze
1:59 PM -11.2 °F -39.7 °F -16.6 °F 77% 30.35 in 1.2 mi East 26.5 mph - N/A Snow Light Snow
2:01 PM -11.9 °F -39.6 °F -17.0 °F 78% 30.35 in 1.5 mi East 24.2 mph - N/A   Haze
2:35 PM -11.2 °F -37.0 °F -16.6 °F 77% 30.36 in 2.0 mi East 20.7 mph - N/A   Mist
2:50 PM -11.2 °F -37.6 °F -16.6 °F 77% 30.35 in 1.8 mi East 21.9 mph - N/A   Clear
3:01 PM -11.2 °F -37.6 °F -16.6 °F 77% 30.34 in 2.0 mi East 21.9 mph - N/A   Clear
3:14 PM -11.2 °F -38.7 °F -16.6 °F 77% 30.34 in 1.5 mi East 24.2 mph - N/A   Clear
4:01 PM -11.0 °F -37.9 °F -16.1 °F 78% 30.33 in 1.5 mi East 23.0 mph - N/A   Haze
4:38 PM -11.2 °F -38.2 °F -14.8 °F 84% 30.31 in 1.2 mi East 23.0 mph - N/A   Mist
5:01 PM -11.2 °F -36.4 °F -14.8 °F 84% 30.31 in 1.8 mi East 19.6 mph - N/A   Partly Cloudy
5:07 PM -11.0 °F -36.2 °F -15.0 °F 83% 30.30 in 1.8 mi East 19.6 mph - N/A   Scattered Clouds
5:27 PM -9.4 °F -34.1 °F -14.8 °F 77% 30.30 in 1.8 mi East 19.6 mph - N/A   Mostly Cloudy
5:44 PM -9.4 °F -34.1 °F -14.8 °F 77% 30.30 in 1.8 mi East 19.6 mph - N/A   Scattered Clouds
5:53 PM -9.4 °F -35.2 °F -14.8 °F 77% 30.29 in 2.0 mi East 21.9 mph - N/A   Partly Cloudy
6:01 PM -9.9 °F -37.0 °F -14.1 °F 82% 30.29 in 1.8 mi East 24.2 mph - N/A   Clear
6:12 PM -9.4 °F -37.3 °F -14.8 °F 77% 30.28 in 1.0 mi East 26.5 mph 32.2 mph 0.00 in Snow Light Snow
6:21 PM -9.4 °F -39.0 °F -14.8 °F 77% 30.28 in 0.8 mi East 31.1 mph - 0.00 in Snow Light Snow
6:42 PM -9.4 °F -37.7 °F -14.8 °F 77% 30.28 in 1.0 mi East 27.6 mph - 0.00 in Snow Light Snow
7:01 PM -9.4 °F -36.3 °F -14.8 °F 77% 30.28 in 1.2 mi East 24.2 mph - N/A Snow Light Snow
7:23 PM -11.2 °F -40.6 °F -16.6 °F 77% 30.27 in 1.0 mi ESE 28.8 mph - N/A Snow Light Snow
7:30 PM -11.2 °F -39.7 °F -16.6 °F 77% 30.27 in 1.2 mi ESE 26.5 mph - N/A Snow Light Snow
8:01 PM -11.0 °F -39.4 °F -16.1 °F 78% 30.27 in 1.2 mi East 26.5 mph - N/A Snow Light Snow
8:49 PM -11.2 °F -39.7 °F -14.8 °F 84% 30.26 in 1.0 mi East 26.5 mph - 0.00 in Snow Light Snow
8:52 PM -9.4 °F -37.3 °F -14.8 °F 77% 30.26 in 0.8 mi East 26.5 mph - 0.00 in Snow Light Snow
9:01 PM -9.4 °F -37.3 °F -14.8 °F 77% 30.26 in 1.0 mi East 26.5 mph - 0.00 in Snow Light Snow
9:12 PM -9.4 °F -37.7 °F -14.8 °F 77% 30.26 in 1.0 mi East 27.6 mph - 0.00 in Snow Light Snow
9:24 PM -9.4 °F -37.3 °F -14.8 °F 77% 30.25 in 1.0 mi East 26.5 mph - 0.00 in Snow Light Snow
10:01 PM -9.4 °F -37.7 °F -14.8 °F 77% 30.24 in 0.8 mi East 27.6 mph - N/A Snow Light Snow
10:11 PM -9.4 °F -38.2 °F -14.8 °F 77% 30.24 in 1.0 mi East 28.8 mph - N/A Snow Light Snow
10:25 PM -9.4 °F -38.2 °F -14.8 °F 77% 30.23 in 0.8 mi East 28.8 mph - N/A Snow Light Snow
10:38 PM -9.4 °F -37.7 °F -14.8 °F 77% 30.23 in 1.0 mi East 27.6 mph - N/A Snow Light Snow
10:50 PM -9.4 °F -36.3 °F -14.8 °F 77% 30.23 in 1.5 mi ESE 24.2 mph - N/A Snow Light Snow
11:01 PM -11.0 °F -39.4 °F -15.0 °F 83% 30.23 in 1.8 mi ESE 26.5 mph - N/A   Clear
11:17 PM -11.2 °F -40.1 °F -16.6 °F 77% 30.23 in 2.0 mi East 27.6 mph - N/A   Haze
11:47 PM -11.2 °F -39.7 °F -16.6 °F 77% 30.23 in 1.8 mi East 26.5 mph - N/A   Haze